FW6790 Weather Reports


Display with metric or nautical units.
time (UTC)temp
F
wind
direction
speed
MPH
gust
MPH
rain 1hr
in
rain 24hr
in
rain mn
in
humidity
%
barometer
mb
20260510214128 78 182 1.0 2.0 0.00 0.00 0.00 63 1015.2
20260510214016 78 182 1.0 2.0 0.00 0.00 0.00 63 1015.2
20260510213405 77 190 1.0 2.0 0.00 0.00 0.00 66 1015.3
20260510212900 77 169 1.0 2.0 0.00 0.00 0.00 65 1015.3
20260510212354 77 169 1.0 2.0 0.00 0.00 0.00 64 1015.3
20260510211848 78 240 0.0 2.0 0.00 0.00 0.00 63 1015.3
20260510211342 78 241 1.0 2.0 0.00 0.00 0.00 62 1015.4
20260510210836 78 200 1.0 2.0 0.00 0.00 0.00 62 1015.3
20260510210331 78 178 1.0 3.0 0.00 0.00 0.00 56 1015.3
20260510205824 78 208 1.0 3.0 0.00 0.00 0.00 55 1015.3
20260510205318 79 208 2.0 5.0 0.00 0.00 0.00 51 1015.2
20260510204813 79 142 1.0 5.0 0.00 0.00 0.00 59 1015.3
20260510204306 80 180 1.0 2.0 0.00 0.00 0.00 56 1015.4
20260510203800 80 192 1.0 2.0 0.00 0.00 0.00 52 1015.4
20260510203254 80 192 1.0 5.0 0.00 0.00 0.00 51 1015.4
20260510203006 81 171 2.0 5.0 0.00 0.00 0.00 50 1015.3
20260510202852 81 171 2.0 5.0 0.00 0.00 0.00 50 1015.3
20260510202242 80 188 2.0 5.0 0.00 0.00 0.00 50 1015.3
20260510201740 80 57 2.0 5.0 0.00 0.00 0.00 52 1015.4
20260510201230 80 200 1.0 5.0 0.00 0.00 0.00 51 1015.3
20260510200724 80 124 2.0 5.0 0.00 0.00 0.00 56 1015.5
20260510200219 80 186 2.0 6.0 0.00 0.00 0.00 51 1015.5
20260510195934 79 154 1.0 6.0 0.00 0.00 0.00 54 1015.5
20260510195816 79 154 1.0 6.0 0.00 0.00 0.00 54 1015.5
20260510195206 80 219 1.0 3.0 0.00 0.00 0.00 57 1015.6
20260510194700 80 290 1.0 3.0 0.00 0.00 0.00 59 1015.7
20260510194424 80 328 1.0 4.0 0.00 0.00 0.00 56 1015.6
20260510194154 80 328 1.0 4.0 0.00 0.00 0.00 56 1015.6
20260510193648 80 340 1.0 4.0 0.00 0.00 0.00 56 1015.6
20260510193143 80 221 1.0 3.0 0.00 0.00 0.00 57 1015.6
20260510192912 80 292 1.0 2.0 0.00 0.00 0.00 55 1015.6
20260510192636 80 292 1.0 2.0 0.00 0.00 0.00 55 1015.6
20260510192130 78 317 1.0 3.0 0.00 0.00 0.00 61 1015.7
20260510191624 78 279 1.0 3.0 0.00 0.00 0.00 65 1015.8
20260510191118 77 31 1.0 2.0 0.00 0.00 0.00 54 1015.8
20260510190613 77 332 1.0 2.0 0.00 0.00 0.00 56 1015.8
20260510190112 77 250 1.0 2.0 0.00 0.00 0.00 62 1015.9
20260510185613 77 250 1.0 5.0 0.00 0.00 0.00 58 1015.9
20260510185113 77 163 2.0 5.0 0.00 0.00 0.00 60 1015.9
20260510184610 78 211 1.0 5.0 0.00 0.00 0.00 59 1015.8
20260510184337 78 180 2.0 5.0 0.00 0.00 0.00 58 1015.9
20260510184110 78 180 2.0 5.0 0.00 0.00 0.00 58 1015.9
20260510183610 78 119 1.0 4.0 0.00 0.00 0.00 61 1015.9
20260510183108 77 166 1.0 3.0 0.00 0.00 0.00 64 1015.9
20260510182606 76 256 1.0 3.0 0.00 0.00 0.00 63 1016.0
20260510182106 76 198 1.0 3.0 0.00 0.00 0.00 67 1016.0
20260510181606 76 178 1.0 3.0 0.00 0.00 0.00 65 1016.0
20260510181104 76 178 0.0 3.0 0.00 0.00 0.00 60 1016.1
20260510180829 76 45 1.0 4.0 0.00 0.00 0.00 60 1016.2
20260510180602 76 45 1.0 4.0 0.00 0.00 0.00 60 1016.2
20260510180425 76 45 2.0 5.0 0.00 0.00 0.00 60 1016.2
20260510180326 76 45 2.0 5.0 0.00 0.00 0.00 60 1016.2
20260510175603 76 169 2.0 5.0 0.00 0.00 0.00 60 1016.2
20260510175102 77 50 2.0 5.0 0.00 0.00 0.00 61 1016.3
20260510174601 76 35 2.0 7.0 0.00 0.00 0.00 65 1016.3
20260510174321 76 55 2.0 7.0 0.00 0.00 0.00 67 1016.4
20260510174205 76 55 2.0 7.0 0.00 0.00 0.00 67 1016.4
20260510173600 75 36 1.0 4.0 0.00 0.00 0.00 66 1016.5
20260510173327 74 173 1.0 4.0 0.00 0.00 0.00 69 1016.7
20260510173104 74 173 1.0 4.0 0.00 0.00 0.00 69 1016.7
20260510172600 74 264 1.0 3.0 0.00 0.00 0.00 69 1016.7
20260510172100 74 58 0.0 2.0 0.00 0.00 0.00 68 1016.7
20260510171559 74 58 1.0 4.0 0.00 0.00 0.00 70 1016.8
20260510171330 74 61 1.0 4.0 0.00 0.00 0.00 67 1016.7
20260510171100 74 61 1.0 4.0 0.00 0.00 0.00 67 1016.7
20260510170600 74 24 1.0 3.0 0.00 0.00 0.00 69 1016.7
20260510170100 74 37 1.0 4.0 0.00 0.00 0.00 70 1016.8
20260510165600 74 40 2.0 5.0 0.00 0.00 0.00 69 1016.8
20260510165322 74 72 2.0 7.0 0.00 0.00 0.00 68 1016.8
20260510165204 74 72 2.0 7.0 0.00 0.00 0.00 68 1016.8
20260510164559 74 14 2.0 7.0 0.00 0.00 0.00 69 1016.8
20260510164100 74 69 2.0 7.0 0.00 0.00 0.00 70 1016.9
20260510163600 74 349 2.0 5.0 0.00 0.00 0.00 73 1016.9
20260510163100 74 0 2.0 5.0 0.00 0.00 0.00 70 1016.9
20260510162600 74 241 2.0 5.0 0.00 0.00 0.00 70 1016.8
20260510162059 74 42 1.0 4.0 0.00 0.00 0.00 71 1016.8
20260510161600 74 79 0.0 3.0 0.00 0.00 0.00 71 1016.9
20260510161100 73 146 0.0 3.0 0.00 0.00 0.00 72 1017.0
20260510160600 0 0.0 0.0 0.00 0.00 0.00 1016.9
20260510160010 0 0.0 0.0 0.00 0.00 0.00 1016.8
20260510155520 0 0.0 0.0 0.00 0.00 0.00 1016.8
20260510154909 0 0.0 0.0 0.00 0.00 0.00 1016.7
20260510154314 0 0.0 0.0 0.00 0.00 0.00 1016.8
20260510153812 0 0.0 0.0 0.00 0.00 0.00 1016.7
20260510153406 0 0.0 0.0 0.00 0.00 0.00 1016.7
20260510152711 0 0.0 0.0 0.00 0.00 0.00 1016.8
20260510152206 0 0.0 0.0 0.00 0.00 0.00 1016.8
20260510151652 0 0.0 0.0 0.00 0.00 0.00 1016.8
20260510151107 0 0.0 0.0 0.00 0.00 0.00 1016.8
20260510150558 0 0.0 0.0 0.00 0.00 0.00 1016.9
20260510150008 0 0.0 0.0 0.00 0.00 0.00 1016.8
20260510145721 0 0.0 0.0 0.00 0.00 0.00 1016.8
20260510145454 0 0.0 0.0 0.00 0.00 0.00 1016.8
20260510145138 0 0.0 0.0 0.00 0.00 0.00 1016.8
20260510145021 0 0.0 0.0 0.00 0.00 0.00 1016.8
20260510144637 0 0.0 0.0 0.00 0.00 0.00 1016.8
20260510144516 0 0.0 0.0 0.00 0.00 0.00 1016.8
20260510143906 0 0.0 0.0 0.00 0.00 0.00 1017.0
20260510143315 0 0.0 0.0 0.00 0.00 0.00 1017.0
20260510142814 0 0.0 0.0 0.00 0.00 0.00 1017.0
20260510142526 0 0.0 0.0 0.00 0.00 0.00 1017.0
20260510142414 0 0.0 0.0 0.00 0.00 0.00 1017.0
20260510141716 0 0.0 0.0 0.00 0.00 0.00 1017.0
20260510141213 0 0.0 0.0 0.00 0.00 0.00 1017.1
20260510140708 0 0.0 0.0 0.00 0.00 0.00 1017.1
20260510140112 0 0.0 0.0 0.00 0.00 0.00 1017.3
20260510135518 0 0.0 0.0 0.00 0.00 0.00 1017.1
20260510135227 0 0.0 0.0 0.00 0.00 0.00 1017.3
20260510135112 0 0.0 0.0 0.00 0.00 0.00 1017.3
20260510134734 0 0.0 0.0 0.00 0.00 0.00 1017.0
20260510134629 0 0.0 0.0 0.00 0.00 0.00 1017.0
20260510134235 0 0.0 0.0 0.00 0.00 0.00 1017.0
20260510134131 0 0.0 0.0 0.00 0.00 0.00 1017.0
20260510133317 0 0.0 0.0 0.00 0.00 0.00 1016.9
20260510132908 0 0.0 0.0 0.00 0.00 0.00 1016.8
20260510132318 0 0.0 0.0 0.00 0.00 0.00 1016.7
20260510131711 0 0.0 0.0 0.00 0.00 0.00 1016.7
20260510131210 0 0.0 0.0 0.00 0.00 0.00 1016.8
20260510130928 0 0.0 0.0 0.00 0.00 0.00 1016.6
20260510130808 0 0.0 0.0 0.00 0.00 0.00 1016.6
20260510130111 0 0.0 0.0 0.00 0.00 0.00 1016.6
20260510125607 0 0.0 0.0 0.00 0.00 0.00 1016.5
20260510124523 0 0.0 0.0 0.00 0.00 0.00 1016.4
20260510124011 0 0.0 0.0 0.00 0.00 0.00 1016.3
20260510123457 0 0.0 0.0 0.00 0.00 0.00 1016.1
20260510123141 0 0.0 0.0 0.00 0.00 0.00 1016.1
20260510123025 0 0.0 0.0 0.00 0.00 0.00 1016.1
20260510122412 0 0.0 0.0 0.00 0.00 0.00 1016.0
20260510121914 0 0.0 0.0 0.00 0.00 0.00 1015.9
20260510121539 0 0.0 0.0 0.00 0.00 0.00 1015.9
20260510121315 0 0.0 0.0 0.00 0.00 0.00 1015.9
20260510120814 0 0.0 0.0 0.00 0.00 0.00 1015.8
20260510120530 0 0.0 0.0 0.00 0.00 0.00 1015.6
20260510120411 0 0.0 0.0 0.00 0.00 0.00 1015.6
20260510115713 0 0.0 0.0 0.00 0.00 0.00 1015.5
20260510115205 0 0.0 0.0 0.00 0.00 0.00 1015.5
20260510114615 0 0.0 0.0 0.00 0.00 0.00 1015.4
20260510114113 0 0.0 0.0 0.00 0.00 0.00 1015.4
20260510113612 0 0.0 0.0 0.00 0.00 0.00 1015.4
20260510113109 0 0.0 0.0 0.00 0.00 0.00 1015.2
20260510112513 0 0.0 0.0 0.00 0.00 0.00 1015.0
20260510112011 0 0.0 0.0 0.00 0.00 0.00 1014.9
20260510111642 0 0.0 0.0 0.00 0.00 0.00 1014.8
20260510111136 0 0.0 0.0 0.00 0.00 0.00 1014.6
20260510111020 0 0.0 0.0 0.00 0.00 0.00 1014.6
20260510110413 0 0.0 0.0 0.00 0.00 0.00 1014.7
20260510105911 0 0.0 0.0 0.00 0.00 0.00 1014.6
20260510105409 0 0.0 0.0 0.00 0.00 0.00 1014.5
20260510104909 0 0.0 0.0 0.00 0.00 0.00 1014.5
20260510104351 0 0.0 0.0 0.00 0.00 0.00 1014.4
20260510104040 0 0.0 0.0 0.00 0.00 0.00 1014.4
20260510103811 0 0.0 0.0 0.00 0.00 0.00 1014.4
20260510103213 0 0.0 0.0 0.00 0.00 0.00 1014.3
20260510102923 0 0.0 0.0 0.00 0.00 0.00 1014.3
20260510102809 0 0.0 0.0 0.00 0.00 0.00 1014.3
20260510102205 0 0.0 0.0 0.00 0.00 0.00 1014.3
20260510101701 0 0.0 0.0 0.00 0.00 0.00 1014.2
20260510101430 0 0.0 0.0 0.00 0.00 0.00 1014.2
20260510101332 0 0.0 0.0 0.00 0.00 0.00 1014.2
20260510100605 0 0.0 0.0 0.00 0.00 0.00 1014.1
20260510100014 0 0.0 0.0 0.00 0.00 0.00 1014.1
20260510095728 0 0.0 0.0 0.00 0.00 0.00 1014.0
20260510095505 0 0.0 0.0 0.00 0.00 0.00 1014.0
20260510095006 0 0.0 0.0 0.00 0.00 0.00 1013.9
20260510094605 0 0.0 0.0 0.00 0.00 0.00 1013.9
20260510094136 0 0.0 0.0 0.00 0.00 0.00 1013.8
20260510094024 0 0.0 0.0 0.00 0.00 0.00 1013.8
20260510093407 0 0.0 0.0 0.00 0.00 0.00 1013.7
20260510092819 0 0.0 0.0 0.00 0.00 0.00 1013.8
20260510092317 0 0.0 0.0 0.00 0.00 0.00 1013.7
20260510091719 0 0.0 0.0 0.00 0.00 0.00 1013.5
20260510091440 0 0.0 0.0 0.00 0.00 0.00 1013.4
20260510091212 0 0.0 0.0 0.00 0.00 0.00 1013.4
20260510090711 0 0.0 0.0 0.00 0.00 0.00 1013.4
20260510090114 0 0.0 0.0 0.00 0.00 0.00 1013.4
20260510085842 0 0.0 0.0 0.00 0.00 0.00 1013.4
20260510085612 0 0.0 0.0 0.00 0.00 0.00 1013.4
20260510085110 0 0.0 0.0 0.00 0.00 0.00 1013.4
20260510084517 0 0.0 0.0 0.00 0.00 0.00 1013.4
20260510084010 0 0.0 0.0 0.00 0.00 0.00 1013.3
20260510083734 0 0.0 0.0 0.00 0.00 0.00 1013.2
20260510083509 0 0.0 0.0 0.00 0.00 0.00 1013.2
20260510083009 0 0.0 0.0 0.00 0.00 0.00 1013.1
20260510082415 0 0.0 0.0 0.00 0.00 0.00 1013.1
20260510081908 0 0.0 0.0 0.00 0.00 0.00 1013.1
20260510081402 0 0.0 0.0 0.00 0.00 0.00 1013.0
20260510080813 0 0.0 0.0 0.00 0.00 0.00 1013.0
20260510080528 0 0.0 0.0 0.00 0.00 0.00 1012.9
20260510080411 0 0.0 0.0 0.00 0.00 0.00 1012.9
20260510075943 0 0.0 0.0 0.00 0.00 0.00 1012.8
20260510075720 0 0.0 0.0 0.00 0.00 0.00 1012.8
20260510075208 0 0.0 0.0 0.00 0.00 0.00 1012.8
20260510074707 0 0.0 0.0 0.00 0.00 0.00 1012.8
20260510074116 0 0.0 0.0 0.00 0.00 0.00 1012.8
20260510073609 0 0.0 0.0 0.00 0.00 0.00 1012.8
20260510073013 0 0.0 0.0 0.00 0.00 0.00 1012.8
20260510072736 0 0.0 0.0 0.00 0.00 0.00 1012.9
20260510072504 0 0.0 0.0 0.00 0.00 0.00 1012.9
20260510071908 0 0.0 0.0 0.00 0.00 0.00 1012.9
20260510071317 0 0.0 0.0 0.00 0.00 0.00 1013.0
20260510070815 0 0.0 0.0 0.00 0.00 0.00 1013.1
20260510070315 0 0.0 0.0 0.00 0.00 0.00 1013.1
20260510065812 0 0.0 0.0 0.00 0.00 0.00 1013.1
20260510065533 0 0.0 0.0 0.00 0.00 0.00 1013.2
20260510065310 0 0.0 0.0 0.00 0.00 0.00 1013.2
20260510064800 0 0.0 0.0 0.00 0.00 0.00 1013.1
20260510064214 0 0.0 0.0 0.00 0.00 0.00 1013.0
20260510063709 0 0.0 0.0 0.00 0.00 0.00 1013.1
20260510063118 0 0.0 0.0 0.00 0.00 0.00 1013.1
20260510062612 0 0.0 0.0 0.00 0.00 0.00 1013.1
20260510062106 0 0.0 0.0 0.00 0.00 0.00 1013.2
20260510061737 0 0.0 0.0 0.00 0.00 0.00 1013.2
20260510061514 0 0.0 0.0 0.00 0.00 0.00 1013.2
20260510061015 0 0.0 0.0 0.00 0.00 0.00 1013.2
20260510060420 0 0.0 0.0 0.00 0.00 0.00 1013.4
20260510060016 0 0.0 0.0 0.00 0.00 0.00 1013.4
20260510055412 0 0.0 0.0 0.00 0.00 0.00 1013.4
20260510055130 0 0.0 0.0 0.00 0.00 0.00 1013.5
20260510055011 0 0.0 0.0 0.00 0.00 0.00 1013.5
20260510054346 0 0.0 0.0 0.00 0.00 0.00 1013.7
20260510053809 0 0.0 0.0 0.00 0.00 0.00 1013.7
20260510053307 0 0.0 0.0 0.00 0.00 0.00 1013.5
20260510052713 0 0.0 0.0 0.00 0.00 0.00 1013.4
20260510052210 0 0.0 0.0 0.00 0.00 0.00 1013.5
20260510051700 0 0.0 0.0 0.00 0.00 0.00 1013.4
20260510051340 0 0.0 0.0 0.00 0.00 0.00 1013.4
20260510051114 0 0.0 0.0 0.00 0.00 0.00 1013.4
20260510050610 0 0.0 0.0 0.00 0.00 0.00 1013.5
20260510050016 0 0.0 0.0 0.00 0.00 0.00 1013.5
20260510045740 0 0.0 0.0 0.00 0.00 0.00 1013.7
20260510045514 0 0.0 0.0 0.00 0.00 0.00 1013.7
20260510045012 0 0.0 0.0 0.00 0.00 0.00 1013.8
20260510044415 0 0.0 0.0 0.00 0.00 0.00 1013.7
20260510043910 0 0.0 0.0 0.00 0.00 0.00 1013.7
20260510043320 0 0.0 0.0 0.00 0.00 0.00 1013.7
20260510042755 0 0.0 0.0 0.00 0.00 0.00 1013.7
20260510042212 0 0.0 0.0 0.00 0.00 0.00 1013.7
20260510041652 0 0.0 0.0 0.00 0.00 0.00 1013.7
20260510041321 0 0.0 0.0 0.00 0.00 0.00 1013.7
20260510041207 0 0.0 0.0 0.00 0.00 0.00 1013.7
20260510040832 0 0.0 0.0 0.00 0.00 0.00 1013.7
20260510040735 0 0.0 0.0 0.00 0.00 0.00 1013.7
20260510035923 0 0.0 0.0 0.00 0.00 0.00 1013.8
20260510035410 0 0.0 0.0 0.00 0.00 0.00 1013.7
20260510035044 0 0.0 0.0 0.00 0.00 0.00 1013.7
20260510034815 0 0.0 0.0 0.00 0.00 0.00 1013.7
20260510034223 0 0.0 0.0 0.00 0.00 0.00 1013.8
20260510033711 0 0.0 0.0 0.00 0.00 0.00 1013.7
20260510033117 0 0.0 0.0 0.00 0.00 0.00 1013.7
20260510032834 0 0.0 0.0 0.00 0.00 0.00 1013.8
20260510032717 0 0.0 0.0 0.00 0.00 0.00 1013.8
20260510032331 0 0.0 0.0 0.00 0.00 0.00 1013.7
20260510032105 0 0.0 0.0 0.00 0.00 0.00 1013.7
20260510031515 0 0.0 0.0 0.00 0.00 0.00 1013.8
20260510031218 0 0.0 0.0 0.00 0.00 0.00 1013.7
20260510031102 0 0.0 0.0 0.00 0.00 0.00 1013.7
20260510030418 0 0.0 0.0 0.00 0.00 0.00 1013.7
20260510025859 0 0.0 0.0 0.00 0.00 0.00 1013.5
20260510025311 0 0.0 0.0 0.00 0.00 0.00 1013.5
20260510024811 0 0.0 0.0 0.00 0.00 0.00 1013.5
20260510024309 0 0.0 0.0 0.00 0.00 0.00 1013.4
20260510024030 0 0.0 0.0 0.00 0.00 0.00 1013.3
20260510023807 0 0.0 0.0 0.00 0.00 0.00 1013.3
20260510023434 0 0.0 0.0 0.00 0.00 0.00 1013.3
20260510023320 0 0.0 0.0 0.00 0.00 0.00 1013.3
20260510022709 0 0.0 0.0 0.00 0.00 0.00 1013.2
20260510022113 0 0.0 0.0 0.00 0.00 0.00 1013.1
20260510021611 0 0.0 0.0 0.00 0.00 0.00 1013.2
20260510021343 0 0.0 0.0 0.00 0.00 0.00 1013.1
20260510021109 0 0.0 0.0 0.00 0.00 0.00 1013.1
20260510020609 0 0.0 0.0 0.00 0.00 0.00 1012.9
20260510020106 0 0.0 0.0 0.00 0.00 0.00 1012.7
20260510015741 0 0.0 0.0 0.00 0.00 0.00 1012.7
20260510015515 0 0.0 0.0 0.00 0.00 0.00 1012.7
20260510015007 0 0.0 0.0 0.00 0.00 0.00 1012.6
20260510014415 0 0.0 0.0 0.00 0.00 0.00 1012.5
20260510013911 0 0.0 0.0 0.00 0.00 0.00 1012.4
20260510013411 0 0.0 0.0 0.00 0.00 0.00 1012.4
20260510012906 0 0.0 0.0 0.00 0.00 0.00 1012.4
20260510012320 0 0.0 0.0 0.00 0.00 0.00 1012.3
20260510012022 0 0.0 0.0 0.00 0.00 0.00 1012.2
20260510011901 0 0.0 0.0 0.00 0.00 0.00 1012.2
20260510011435 0 0.0 0.0 0.00 0.00 0.00 1012.1
20260510011321 0 0.0 0.0 0.00 0.00 0.00 1012.1
20260510010717 0 0.0 0.0 0.00 0.00 0.00 1012.0
20260510010205 0 0.0 0.0 0.00 0.00 0.00 1011.8
20260510005701 0 0.0 0.0 0.00 0.00 0.00 1011.8
20260510005344 0 0.0 0.0 0.00 0.00 0.00 1011.8
20260510005110 0 0.0 0.0 0.00 0.00 0.00 1011.8
20260510004750 0 0.0 0.0 0.00 0.00 0.00 1011.7
20260510004516 0 0.0 0.0 0.00 0.00 0.00 1011.7
20260510004012 0 0.0 0.0 0.00 0.00 0.00 1011.7
20260510003420 0 0.0 0.0 0.00 0.00 0.00 1011.6
20260510002912 0 0.0 0.0 0.00 0.00 0.00 1011.6
20260510002637 0 0.0 0.0 0.00 0.00 0.00 1011.4
20260510002515 0 0.0 0.0 0.00 0.00 0.00 1011.4
20260510001817 0 0.0 0.0 0.00 0.00 0.00 1011.4
20260510001317 0 0.0 0.0 0.00 0.00 0.00 1011.6
20260510001038 69 0.0 0.0 0.00 0.00 0.00 100 1011.4
20260510000814 69 0.0 0.0 0.00 0.00 0.00 100 1011.4
20260510000534 69 220 0.0 0.0 0.00 0.00 0.00 100 1011.3
20260510000312 69 220 0.0 0.0 0.00 0.00 0.00 100 1011.3
20260509235752 69 220 0.0 1.0 0.00 0.00 0.00 100 1011.2
20260509235459 69 220 0.0 1.0 0.00 0.00 0.00 100 1011.2
20260509235238 69 220 0.0 1.0 0.00 0.00 0.00 100 1011.2
20260509234732 71 234 0.0 1.0 0.00 0.00 0.00 79 1011.2
20260509234226 71 340 0.0 0.0 0.00 0.00 0.00 78 1011.2
20260509233951 71 340 0.0 0.0 0.00 0.00 0.00 78 1011.2
20260509233719 71 340 0.0 0.0 0.00 0.00 0.00 78 1011.2
20260509233219 72 340 0.0 0.0 0.00 0.00 0.00 77 1011.0
20260509232707 72 340 0.0 0.0 0.00 0.00 0.00 77 1011.0
20260509232202 73 340 0.0 0.0 0.00 0.00 0.00 77 1011.0
20260509231926 73 340 0.0 1.0 0.00 0.00 0.00 77 1011.0
20260509231801 73 340 0.0 1.0 0.00 0.00 0.00 77 1011.0
20260509231150 73 340 0.0 1.0 0.00 0.00 0.00 76 1010.9
20260509231008 73 186 0.0 1.0 0.00 0.00 0.00 76 1010.8
20260509230906 73 186 0.0 1.0 0.00 0.00 0.00 76 1010.8
20260509230138 73 284 0.0 2.0 0.00 0.00 0.00 75 1010.7
20260509225632 73 178 0.0 2.0 0.00 0.00 0.00 74 1010.9
20260509225127 74 178 0.0 2.0 0.00 0.00 0.00 75 1010.8
20260509224620 74 178 0.0 2.0 0.00 0.00 0.00 72 1010.9
20260509224114 74 94 0.0 2.0 0.00 0.00 0.00 72 1010.9
20260509223608 74 96 0.0 4.0 0.00 0.00 0.00 71 1010.7
20260509223102 74 103 0.0 4.0 0.00 0.00 0.00 74 1010.8
20260509222556 74 213 0.0 2.0 0.00 0.00 0.00 72 1010.7
20260509222051 74 318 0.0 2.0 0.00 0.00 0.00 73 1010.6
20260509221544 74 318 0.0 2.0 0.00 0.00 0.00 70 1010.5
20260509221038 75 350 0.0 2.0 0.00 0.00 0.00 71 1010.5
20260509220755 75 275 1.0 2.0 0.00 0.00 0.00 70 1010.6
20260509220636 75 275 1.0 2.0 0.00 0.00 0.00 70 1010.6
20260509220026 74 329 1.0 3.0 0.00 0.00 0.00 70 1010.4
20260509215741 74 266 1.0 3.0 0.00 0.00 0.00 69 1010.5
20260509215520 74 266 1.0 3.0 0.00 0.00 0.00 69 1010.5
20260509215014 74 221 1.0 2.0 0.00 0.00 0.00 69 1010.5
20260509214737 74 296 1.0 3.0 0.00 0.00 0.00 70 1010.5
20260509214508 74 296 1.0 3.0 0.00 0.00 0.00 70 1010.5